CAPE
0 0 0 0 0 0 0 0 0 2 1 0 1 0 0 0 0 0 0 0 0 0 0 0 0 0 0 0 0 0 0 0 0 0 0 0 0 0 0 0 0 0 0 0 0 0 0
0 0 0 0 0 0 0 0 0 0 0 1 1 0 0 0 0 0 0 0 0 0 0 0 0 0 0 0 0 0 0 0 0 0 0 0 0 0 0 0 0 0 0 0 0 0 0
0 0 0 1 10 0 0 0 0 4 6 5 0 0 0 0 0 0 0 0 0 0 0 0 0 0 0 0 0 0 0 0 0 0 0 0 0 0 0 0 0 0 0 0 0 0 0
0 0 7 28 6 0 4 10 0 13 9 5 0 0 0 0 0 0 0 0 0 0 0 0 0 0 0 0 0 0 0 0 0 0 0 0 0 0 0 0 0 0 0 0 0 0 0
0 1 20 2 9 5 8 8 7 15 6 1 1 0 0 0 0 0 0 0 0 0 0 0 0 0 0 0 0 0 0 0 0 0 0 0 0 0 0 0 0 0 0 0 0 0 0
0 4 20 0 6 7 12 7 9 10 12 5 1 0 0 0 0 0 0 0 0 0 0 0 0 0 0 0 0 0 0 0 0 0 0 0 0 0 0 0 0 0 0 0 0 0 0
17 17 22 7 5 5 9 11 3 8 9 3 0 0 0 0 0 0 0 0 0 0 0 0 0 0 0 0 0 0 0 0 0 0 0 0 0 0 0 0 0 0 0 0 0 0 0
13 15 17 11 5 6 7 10 2 7 6 2 3 0 0 0 0 0 0 0 0 0 0 0 0 0 0 0 0 0 0 0 0 0 0 0 0 0 0 0 0 0 0 0 0 0 0
13 6 12 21 3 5 14 9 0 0 0 2 2 0 0 0 0 0 0 0 0 0 0 0 0 0 0 0 0 0 0 0 0 0 0 0 0 0 0 0 0 0 0 0 2 0 0
18 4 11 14 8 8 7 10 2 0 0 0 2 0 0 0 0 0 0 0 0 0 0 0 0 0 0 0 0 0 0 0 0 0 0 0 0 0 0 0 0 0 0 0 1 7 2
20 8 10 15 6 9 2 6 4 0 0 0 1 0 0 0 0 0 0 0 0 0 0 0 0 0 0 0 0 0 0 0 0 0 0 0 0 0 0 0 0 0 0 0 6 6 18
2 22 13 9 13 4 4 0 6 0 0 0 0 0 0 0 0 0 0 0 0 0 0 0 0 0 0 0 0 0 0 0 0 0 0 0 0 0 0 0 0 0 0 1 1 4 1
0 11 8 2 15 6 6 6 8 1 0 0 0 0 0 0 0 0 0 0 0 0 0 0 0 0 0 0 0 0 0 0 0 0 0 0 0 0 0 0 0 0 0 7 2 5 0
9 3 4 11 9 15 3 3 4 5 0 0 0 0 0 0 0 0 0 0 0 0 0 0 0 0 0 0 0 0 0 0 0 0 0 0 0 0 0 0 0 1 0 22 0 1 8
30 13 1 3 19 3 0 2 6 6 4 1 0 0 0 0 0 0 0 0 0 0 0 0 0 0 0 0 0 0 0 0 0 0 0 0 0 0 0 0 0 0 0 0 1 2 2
5 16 25 7 5 5 2 0 7 8 6 0 0 0 0 0 0 0 0 0 0 0 0 0 0 0 0 0 0 0 0 0 0 0 0 0 0 0 0 0 0 0 0 2 7 2 1
10 8 3 20 7 1 5 1 1 9 8 0 0 0 0 0 0 0 0 0 0 0 0 0 0 0 0 0 0 0 0 0 0 0 0 0 0 0 0 0 0 0 0 0 0 1 3
6 8 2 6 33 9 3 2 0 11 13 0 0 0 1 0 0 1 0 0 0 0 0 0 0 0 0 0 0 0 0 0 0 0 0 0 0 0 0 0 0 0 0 0 3 0 2
6 7 9 0 2 32 12 7 0 8 5 9 0 1 0 2 0 0 0 0 0 0 0 0 0 0 0 0 0 0 0 0 0 0 0 0 0 0 0 0 0 0 0 0 0 0 1
20 6 17 3 10 3 25 12 0 5 13 8 0 0 0 5 0 0 0 0 0 0 0 0 0 0 0 0 0 0 0 0 0 0 0 0 0 0 0 0 0 0 0 0 0 3 5
10 20 4 12 9 4 3 16 4 0 15 9 0 0 1 0 3 0 0 0 0 0 0 0 0 0 0 0 0 0 0 0 0 0 0 0 0 0 0 0 0 0 0 0 0 0 2
17 11 11 14 16 5 5 3 5 2 4 10 0 3 4 0 0 0 0 0 0 0 0 0 0 0 0 0 0 0 0 0 0 0 0 0 0 0 0 0 0 0 0 0 0 0 0
14 15 18 15 17 14 11 8 8 11 2 1 16 2 0 0 0 2 0 0 0 0 0 0 0 0 0 0 0 0 0 0 0 0 0 0 0 0 0 0 0 0 0 0 0 0 0
11 10 9 16 11 19 9 7 4 9 13 0 1 4 3 0 0 0 0 0 0 0 0 0 0 0 0 0 0 0 0 0 0 0 0 0 0 0 0 0 0 0 0 0 0 0 0
17 19 10 6 13 13 23 9 11 3 22 15 0 5 13 0 0 0 0 0 0 0 0 0 0 0 0 0 0 0 0 0 0 0 0 0 0 0 0 0 0 0 0 0 0 0 0
24 19 22 22 14 17 23 35 7 18 16 33 0 0 9 0 0 0 0 0 0 0 0 0 0 0 0 0 0 0 0 0 0 0 0 0 0 0 0 0 0 0 0 0 0 0 0
29 34 26 23 28 17 13 4 27 6 4 21 7 0 7 11 0 0 0 0 0 0 0 0 0 0 0 0 0 0 0 0 0 0 0 0 0 0 0 0 0 0 0 0 0 0 0
20 31 32 26 31 22 15 18 12 8 9 8 6 0 1 9 3 0 0 0 0 0 0 0 0 0 0 0 0 0 0 0 0 0 0 0 0 0 0 0 0 0 0 0 0 0 0
19 19 38 33 38 42 32 23 17 22 16 8 2 3 1 8 0 0 0 0 0 0 0 0 0 0 0 0 0 0 0 0 0 0 0 0 0 0 0 0 0 0 0 0 0 0 0
CIN
-0 -0 -0 -0 -0 -0 -0 -0 -0 -1 -0 -0 -0 -0 -0 -0 -0 -0 -0 -0 -0 -0 -0 -0 -0 -0 -0 -0 -0 -0 -0 -0 -0 -0 -0 -0 -0 -0 -0 -0 -0 -0 -0 -0 -0 -0 -0
-0 -0 -0 -0 -0 -0 -0 -0 -0 -0 -0 -0 -0 -0 -0 -0 -0 -0 -0 -0 -0 -0 -0 -0 -0 -0 -0 -0 -0 -0 -0 -0 -0 -0 -0 -0 -0 -0 -0 -0 -0 -0 -0 -0 -0 -0 -0
-0 -0 -0 -4 -5 -0 -0 -0 -0 -3 -3 -2 -0 -0 -0 -0 -0 -0 -0 -0 -0 -0 -0 -0 -0 -0 -0 -0 -0 -0 -0 -0 -0 -0 -0 -0 -0 -0 -0 -0 -0 -0 -0 -0 -0 -0 -0
-0 -0 -7 -0 -7 -1 -2 -2 -1 -4 -2 -1 -0 -0 -0 -0 -0 -0 -0 -0 -0 -0 -0 -0 -0 -0 -0 -0 -0 -0 -0 -0 -0 -0 -0 -0 -0 -0 -0 -0 -0 -0 -0 -0 -0 -0 -0
-0 -3 -1 -9 -1 -6 -3 -2 -1 -3 -1 -1 -1 -0 -0 -0 -0 -0 -0 -0 -0 -0 -0 -0 -0 -0 -0 -0 -0 -0 -0 -0 -0 -0 -0 -0 -0 -0 -0 -0 -0 -0 -0 -0 -0 -0 -0
-0 -5 -1 -0 -3 -7 -5 -1 -1 -2 -4 -0 -3 -0 -0 -0 -0 -0 -0 -0 -0 -0 -0 -0 -0 -0 -0 -0 -0 -0 -0 -0 -0 -0 -0 -0 -0 -0 -0 -0 -0 -0 -0 -0 -0 -0 -0
-1 -5 -0 -12 -4 -8 -2 -3 -0 -1 -2 -3 -0 -0 -0 -0 -0 -0 -0 -0 -0 -0 -0 -0 -0 -0 -0 -0 -0 -0 -0 -0 -0 -0 -0 -0 -0 -0 -0 -0 -0 -0 -0 -0 -0 -0 -0
-4 -2 -0 -7 -7 -4 -3 -3 -4 -1 -2 -0 -1 -0 -0 -0 -0 -0 -0 -0 -0 -0 -0 -0 -0 -0 -0 -0 -0 -0 -0 -0 -0 -0 -0 -0 -0 -0 -0 -0 -0 -0 -0 -0 -0 -1 -0
-4 -3 -5 -5 -5 -4 -4 -8 -2 -0 -0 -2 -2 -0 -0 -0 -0 -0 -0 -0 -0 -0 -0 -0 -0 -0 -0 -0 -0 -0 -0 -0 -0 -0 -0 -0 -0 -0 -0 -0 -0 -0 -0 -0 -2 -0 -0
-2 -4 -5 -8 -3 -3 -6 -7 -4 -0 -0 -0 -3 -0 -0 -0 -0 -0 -0 -0 -0 -0 -0 -0 -0 -0 -0 -0 -0 -0 -0 -0 -0 -0 -0 -0 -0 -0 -0 -0 -0 -0 -0 -0 -1 -1 -3
-5 -4 -7 -3 -8 -7 -8 -7 -4 -0 -0 -0 -6 -0 -0 -0 -0 -0 -0 -0 -0 -0 -0 -0 -0 -0 -0 -0 -0 -0 -0 -0 -0 -0 -0 -0 -0 -0 -0 -0 -0 -0 -0 -0 -1 -4 -1
-13 -8 -6 -9 -9 -8 -4 -5 -8 -0 -0 -0 -0 -0 -0 -0 -0 -0 -0 -0 -0 -0 -0 -0 -0 -0 -0 -0 -0 -0 -0 -0 -0 -0 -0 -0 -0 -0 -0 -0 -0 -0 -0 -0 -1 -2 -1
-9 -4 -6 -4 -8 -7 -5 -6 -6 -5 -0 -0 -0 -0 -0 -0 -0 -0 -0 -0 -0 -0 -0 -0 -0 -0 -0 -0 -0 -0 -0 -0 -0 -0 -0 -0 -0 -0 -0 -0 -0 -0 -0 -2 -3 -6 -0
-6 -7 -9 -12 -9 -7 -9 -6 -8 -6 -0 -0 -0 -0 -0 -0 -0 -0 -0 -0 -0 -0 -0 -0 -0 -0 -0 -0 -0 -0 -0 -0 -0 -0 -0 -0 -0 -0 -0 -0 -0 -1 -0 -0 -1 -5 -3
-0 -5 -12 -14 -10 -10 -3 -8 -5 -8 -7 -0 -0 -0 -0 -0 -0 -0 -0 -0 -0 -0 -0 -0 -0 -0 -0 -0 -0 -0 -0 -0 -0 -0 -0 -0 -0 -0 -0 -0 -0 -0 -0 -0 -0 -0 -1
-1 -8 -1 -8 -9 -8 -10 -0 -5 -9 -8 -1 -0 -0 -0 -0 -0 -0 -0 -0 -0 -0 -0 -0 -0 -0 -0 -0 -0 -0 -0 -0 -0 -0 -0 -0 -0 -0 -0 -0 -0 -0 -0 -0 -2 -0 -2
-0 -0 -0 -4 -7 -10 -10 -20 -12 -6 -6 -0 -0 -0 -0 -0 -0 -0 -0 -0 -0 -0 -0 -0 -0 -0 -0 -0 -0 -0 -0 -0 -0 -0 -0 -0 -0 -0 -0 -0 -0 -0 -0 -0 -0 -0 -0
-0 -0 -0 -0 -0 -4 -9 -10 -0 -11 -5 -0 -0 -0 -0 -0 -0 -1 -0 -0 -0 -0 -0 -0 -0 -0 -0 -0 -0 -0 -0 -0 -0 -0 -0 -0 -0 -0 -0 -0 -0 -0 -0 -0 -0 -0 -1
-0 -0 -0 -0 -0 -0 -7 -8 -1 -13 -7 -1 -0 -0 -0 -0 -0 -0 -0 -0 -0 -0 -0 -0 -0 -0 -0 -0 -0 -0 -0 -0 -0 -0 -0 -0 -0 -0 -0 -0 -0 -0 -0 -0 -0 -0 -0
-0 -0 -0 -0 -0 -0 -2 -14 -2 -18 -8 -2 -0 -0 -0 -2 -0 -0 -0 -0 -0 -0 -0 -0 -0 -0 -0 -0 -0 -0 -0 -0 -0 -0 -0 -0 -0 -0 -0 -0 -0 -0 -0 -0 -0 -1 -1
-1 -0 -0 -1 -0 -0 -8 -3 -2 -0 -15 -2 -0 -0 -0 -2 -0 -0 -0 -0 -0 -0 -0 -0 -0 -0 -0 -0 -0 -0 -0 -0 -0 -0 -0 -0 -0 -0 -0 -0 -0 -0 -0 -0 -0 -0 -2
-0 -0 -0 -0 -0 -0 -0 -0 -2 -7 -38 -0 -0 -0 -0 -1 -0 -0 -0 -0 -0 -0 -0 -0 -0 -0 -0 -0 -0 -0 -0 -0 -0 -0 -0 -0 -0 -0 -0 -0 -0 -0 -0 -0 -0 -0 -0
-0 -0 -0 -0 -2 -0 -1 -0 -0 -1 -22 -11 -1 -1 -0 -0 -0 -0 -0 -0 -0 -0 -0 -0 -0 -0 -0 -0 -0 -0 -0 -0 -0 -0 -0 -0 -0 -0 -0 -0 -0 -0 -0 -0 -0 -0 -0
-0 -0 -0 -1 -0 -0 -0 -0 -0 -0 -10 -8 -0 -1 -0 -0 -0 -0 -0 -0 -0 -0 -0 -0 -0 -0 -0 -0 -0 -0 -0 -0 -0 -0 -0 -0 -0 -0 -0 -0 -0 -0 -0 -0 -0 -0 -0
-0 -0 -1 -2 -0 -0 -0 -0 -0 -0 -1 -1 -0 -1 -0 -0 -0 -0 -0 -0 -0 -0 -0 -0 -0 -0 -0 -0 -0 -0 -0 -0 -0 -0 -0 -0 -0 -0 -0 -0 -0 -0 -0 -0 -0 -0 -0
-0 -1 -1 -0 -1 -0 -0 -0 -0 -0 -0 -0 -0 -13 -1 -0 -0 -0 -0 -0 -0 -0 -0 -0 -0 -0 -0 -0 -0 -0 -0 -0 -0 -0 -0 -0 -0 -0 -0 -0 -0 -0 -0 -0 -0 -0 -0
-0 -3 -0 -3 -0 -0 -0 -3 -0 -0 -0 -0 -0 -0 -2 -0 -0 -0 -0 -0 -0 -0 -0 -0 -0 -0 -0 -0 -0 -0 -0 -0 -0 -0 -0 -0 -0 -0 -0 -0 -0 -0 -0 -0 -0 -0 -0
-1 -0 -0 -0 -1 -0 -0 -0 -0 -0 -0 -0 -0 -2 -0 -1 -6 -0 -0 -0 -0 -0 -0 -0 -0 -0 -0 -0 -0 -0 -0 -0 -0 -0 -0 -0 -0 -0 -0 -0 -0 -0 -0 -0 -0 -0 -0
-0 -0 -0 -0 -0 -0 -0 -0 -0 -0 -0 -0 -0 -0 -2 -1 -0 -0 -0 -0 -0 -0 -0 -0 -0 -0 -0 -0 -0 -0 -0 -0 -0 -0 -0 -0 -0 -0 -0 -0 -0 -0 -0 -0 -0 -0 -0
Wind_Speed
16 16 16 16 16 16 17 17 18 19 20 21 21 21 20 19 18 18 18 17 16 15 17 13 10 10 11 9 10 16 19 19 20 19 19 18 18 18 19 21 25 27 29 31 35 39 40
15 15 16 16 16 17 18 19 19 20 20 21 22 21 21 20 19 19 18 17 15 14 12 11 12 11 10 11 14 16 17 18 19 20 20 19 19 18 18 22 24 26 32 36 36 39 40
15 16 16 16 17 18 20 20 20 21 21 21 22 21 21 20 20 20 18 16 15 13 11 11 11 9 15 12 13 15 18 18 20 20 20 20 20 20 22 23 25 30 35 35 27 33 37
15 17 19 20 16 19 20 20 21 23 22 21 21 21 21 20 20 20 17 15 12 11 12 13 12 12 13 14 15 19 19 20 21 21 20 21 20 20 23 25 27 30 27 34 30 35 33
15 16 21 17 19 19 20 21 22 23 21 21 22 21 21 21 20 20 16 12 12 12 13 14 13 12 13 15 18 20 21 20 20 21 22 21 21 23 24 30 27 28 39 42 39 34 40
18 19 17 17 20 18 20 21 22 23 22 22 22 21 21 21 20 19 15 13 14 13 13 13 13 12 13 15 18 21 22 21 22 22 20 23 22 25 29 32 35 40 42 41 45 41 45
20 22 22 19 19 18 21 21 22 23 22 23 23 22 21 20 20 19 14 12 10 11 13 13 12 12 12 15 18 23 23 20 22 24 24 24 26 30 31 32 33 36 39 42 42 41 45
22 24 22 20 17 19 19 22 22 22 23 23 22 22 21 21 19 17 13 12 13 12 10 12 13 13 13 15 18 24 24 20 24 26 23 22 29 29 31 32 34 37 39 40 38 38 45
20 24 24 19 19 20 21 20 22 23 23 23 22 21 21 21 18 14 12 12 12 13 13 12 13 14 14 16 19 24 25 21 23 26 25 26 27 29 30 34 38 36 35 38 41 43 41
20 20 23 16 20 22 22 21 21 23 23 23 21 20 21 21 14 13 13 14 12 15 11 11 12 13 14 15 18 23 25 21 22 25 23 24 26 30 34 33 34 34 32 32 35 38 38
20 21 20 21 20 20 23 22 21 22 22 22 18 19 19 17 12 12 13 12 12 15 14 9 10 12 14 15 18 23 25 19 22 24 22 23 27 31 32 33 27 26 28 28 31 32 32
20 19 21 19 19 20 22 23 22 22 22 19 17 18 19 15 14 12 12 11 12 13 16 9 9 9 12 15 18 20 23 19 20 21 23 23 23 26 28 26 21 23 22 21 21 25 22
25 22 23 24 21 20 20 22 22 22 22 18 16 17 18 16 13 13 11 10 14 17 11 9 8 8 12 14 16 18 21 24 22 20 24 22 25 24 26 29 22 25 27 26 27 24 22
29 27 23 22 23 21 20 21 24 21 21 18 16 17 16 17 15 14 12 13 17 15 10 10 7 8 12 12 15 17 17 20 24 23 21 25 22 28 26 28 23 23 23 24 24 26 22
32 31 26 24 23 22 21 20 22 21 20 17 16 17 17 16 14 14 12 15 18 15 8 5 5 9 11 11 13 14 17 18 20 24 21 23 21 21 23 22 28 22 23 13 15 10 20
34 31 32 27 24 22 21 20 20 20 19 17 19 18 18 16 12 14 15 19 16 13 9 3 11 10 9 8 10 12 14 15 17 21 19 20 21 20 20 19 23 20 17 19 17 21 21
35 34 31 32 27 23 22 21 19 20 17 16 20 21 17 13 11 16 21 20 16 12 10 11 12 10 10 9 9 11 12 13 15 19 18 19 19 21 18 23 25 22 20 16 14 16 17
39 37 36 33 31 26 23 22 20 19 15 17 21 25 16 13 18 21 22 19 17 11 14 15 12 12 7 6 9 10 11 14 14 16 17 19 18 19 20 17 19 21 22 19 17 17 15
41 38 37 35 29 32 27 23 21 18 17 18 24 23 19 21 25 24 22 22 19 13 13 13 12 12 10 6 11 9 9 12 13 15 16 17 17 20 19 17 16 19 19 18 16 14 16
39 39 39 37 37 35 32 26 23 19 20 22 23 27 24 27 26 25 22 23 21 17 15 14 13 10 7 8 10 7 8 9 11 13 14 15 15 16 19 18 16 17 17 18 18 18 19
40 40 40 39 38 38 35 29 26 23 22 24 28 31 26 29 31 26 23 22 20 19 18 12 14 11 8 12 9 9 6 8 10 10 11 14 15 15 15 14 13 13 14 16 17 17 17
43 42 40 40 41 40 38 34 29 26 23 31 31 28 28 31 27 29 26 29 22 20 15 15 17 10 7 12 10 6 4 6 9 9 9 13 13 14 15 15 13 13 13 15 18 20 19
42 43 42 41 41 41 38 37 37 30 27 32 34 29 28 29 28 29 31 28 24 19 22 19 14 11 11 9 9 11 10 11 10 8 7 11 12 13 16 14 13 12 9 12 14 14 14
41 42 43 43 41 42 43 41 41 35 34 32 32 30 33 35 31 33 29 30 27 23 22 20 15 12 11 5 7 10 12 12 10 7 7 8 9 12 14 13 15 15 12 11 11 12 12
42 41 43 45 43 43 42 44 38 39 40 37 32 34 34 38 34 31 30 29 26 24 22 18 13 13 3 5 12 14 15 15 13 8 3 5 8 12 13 9 16 9 5 8 9 9 9
44 43 43 44 44 44 43 41 41 44 46 39 35 34 35 37 39 31 30 27 27 26 21 19 15 8 8 12 14 16 15 12 11 8 6 4 6 9 12 14 15 17 10 9 11 9 7
38 41 42 43 45 44 47 46 41 41 39 46 38 35 36 38 34 30 30 29 25 25 24 18 16 16 15 17 18 17 16 12 10 7 5 3 6 4 8 13 14 9 9 10 12 16 12
31 37 40 41 42 44 44 45 44 42 42 44 40 39 39 38 29 31 29 28 25 25 25 19 17 21 18 19 18 17 16 13 13 9 5 3 5 9 7 14 14 7 8 6 12 11 12
27 33 36 38 39 40 41 44 45 41 40 43 39 37 38 37 31 27 29 28 31 26 25 23 23 19 17 18 18 16 16 12 12 14 5 8 6 11 7 13 13 7 8 4 10 11 12
Wind_Direction
352 344 337 337 332 323 320 320 321 321 327 331 322 312 304 297 291 288 283 273 262 279 325 290 270 294 296 353 316 300 301 312 328 321 323 323 327 309 300 299 296 287 287 289 289 286 281
350 332 324 327 326 319 314 315 321 322 327 330 324 312 303 297 291 284 281 275 254 251 264 295 305 292 58 350 282 294 309 316 325 327 334 335 326 328 319 309 301 299 292 290 290 287 284
339 321 318 322 327 325 316 315 315 316 317 324 319 309 298 296 294 289 283 268 263 276 307 298 304 302 14 349 309 313 321 334 332 333 334 339 337 330 322 312 313 303 295 294 294 293 289
332 312 305 308 326 323 317 317 312 303 309 315 310 310 302 295 295 297 290 297 324 326 302 302 300 336 0 333 317 332 325 337 345 343 346 344 347 343 330 324 316 308 303 295 293 296 292
327 316 302 317 317 320 318 315 311 308 313 302 303 305 305 300 298 300 300 322 337 323 309 304 321 315 347 353 336 331 331 331 344 356 359 358 356 345 339 324 316 315 299 295 294 294 289
312 308 313 313 310 318 319 316 313 308 305 301 299 300 300 301 297 298 301 309 305 307 309 331 331 0 339 335 330 324 341 347 354 359 4 358 357 347 342 333 315 308 303 299 292 294 286
305 300 304 306 312 314 311 313 312 309 306 297 293 293 294 297 295 297 307 308 321 319 317 318 334 347 4 356 340 340 331 3 1 0 353 359 352 346 343 342 332 319 311 304 299 298 289
298 296 299 301 312 307 312 306 310 308 306 298 293 291 289 292 293 306 315 315 300 298 328 328 324 336 348 350 335 339 339 360 355 353 359 6 357 356 352 350 342 330 319 310 307 302 293
299 296 291 299 303 302 303 308 304 305 304 297 294 291 288 287 295 325 333 319 309 301 307 309 316 331 345 349 345 336 344 3 357 358 3 5 2 1 0 355 348 343 331 321 309 304 295
296 297 293 296 300 296 298 300 303 301 299 296 296 296 291 285 310 313 312 302 299 287 323 327 326 333 349 351 348 345 346 359 4 359 6 9 9 5 359 2 360 353 353 338 323 308 292
291 289 292 290 293 295 294 294 298 298 297 296 304 298 295 297 310 306 307 317 302 287 316 338 344 342 354 349 344 345 350 11 5 6 13 12 10 8 10 10 13 7 3 354 335 316 303
294 285 287 287 287 293 293 290 292 293 293 298 301 297 293 297 300 308 309 312 298 307 306 342 349 357 351 347 352 354 358 19 20 17 21 20 27 24 21 20 32 21 14 10 8 337 313
286 286 283 282 283 285 290 289 287 290 290 294 296 294 290 291 294 301 305 299 296 291 317 327 337 349 347 350 357 1 2 7 12 18 12 25 22 32 31 29 43 29 21 15 360 344 326
282 282 283 277 278 279 282 287 282 286 287 288 291 289 287 283 290 292 289 287 286 299 302 324 337 351 334 356 359 2 16 17 11 16 22 18 25 25 35 37 33 39 41 30 10 339 321
290 279 278 278 273 272 274 281 280 279 283 284 285 283 281 281 282 284 281 278 288 290 306 314 343 329 332 355 359 12 12 24 23 12 23 20 28 39 45 48 44 47 45 60 53 70 336
288 289 277 274 272 267 267 274 277 274 277 277 277 275 274 276 271 277 275 277 286 293 307 306 301 316 332 5 12 17 24 37 33 21 31 29 28 39 43 52 50 56 60 60 66 30 346
283 285 284 278 269 265 262 264 269 269 269 270 270 269 273 267 263 268 267 273 281 284 292 291 294 309 322 350 11 18 23 39 43 30 40 30 35 34 49 46 44 52 57 71 86 75 46
277 279 279 282 268 262 258 258 261 259 257 261 265 262 266 248 256 264 263 271 278 271 277 289 295 304 322 0 3 14 26 25 52 47 38 31 36 33 39 60 63 63 59 68 75 72 77
275 274 274 275 278 265 254 252 253 248 241 254 260 262 259 255 255 256 264 265 271 266 269 283 289 299 314 337 343 9 29 42 51 52 45 44 36 30 38 52 65 60 62 69 87 95 78
278 274 269 269 271 271 257 247 244 239 235 248 257 253 255 250 260 253 254 261 261 265 268 277 288 295 306 316 331 4 26 44 46 48 50 59 44 34 27 35 52 57 61 69 78 79 79
276 275 271 267 266 264 267 243 238 235 228 241 252 254 249 249 246 252 250 260 251 260 266 264 278 280 284 301 316 332 10 24 28 45 57 49 37 38 36 44 60 64 65 67 75 81 79
274 272 271 267 262 261 261 250 234 229 222 240 246 252 252 257 244 241 246 250 250 252 254 256 270 260 267 296 308 316 357 10 12 47 51 38 33 41 31 38 50 54 63 70 65 72 74
275 271 269 267 261 257 257 253 242 224 219 245 241 251 253 251 242 242 242 249 247 250 257 266 255 263 266 282 309 322 327 340 354 27 40 30 36 30 18 30 33 36 78 74 64 71 72
274 271 267 265 262 258 254 255 255 222 223 243 242 246 247 250 243 243 246 244 249 246 258 259 259 259 280 306 329 327 324 329 340 357 19 27 37 24 16 32 12 21 63 63 61 58 63
271 270 267 263 260 256 255 249 252 233 228 235 241 237 246 247 245 245 245 246 245 248 252 255 254 267 231 278 295 302 309 318 322 338 27 44 34 12 10 19 4 26 77 77 63 48 66
268 266 265 262 259 255 252 249 244 253 237 230 237 236 243 247 245 245 240 239 239 238 247 252 261 241 258 276 284 288 298 313 328 347 353 29 19 10 5 358 4 6 57 75 47 21 76
269 265 263 261 258 254 249 246 246 245 244 229 236 232 236 245 249 238 236 235 238 234 240 244 241 250 259 267 275 283 292 307 314 324 334 357 351 351 355 347 356 26 73 68 14 12 58
265 263 262 260 257 253 249 243 246 244 244 233 231 226 228 239 251 243 244 238 237 235 234 235 240 252 253 260 271 281 288 292 304 319 330 324 349 346 348 341 346 83 76 35 23 41 30
260 259 258 258 255 252 247 242 238 246 240 230 231 225 228 235 248 250 248 250 243 238 238 232 251 235 253 258 269 283 287 295 298 306 299 318 332 344 351 348 6 105 25 79 25 21 17